TimeEDT,TemperatureF,Dew PointF,Humidity,Sea Level PressureIn,VisibilityMPH,Wind Direction,Wind SpeedMPH,Gust SpeedMPH,PrecipitationIn,Events,Conditions,WindDirDegrees,DateUTC
12:15 AM,50.0,44.6,82,30.10,10.0,SE,15.0,-,N/A,,Overcast,140,2012-10-10 04:15:00
12:35 AM,50.0,44.6,82,30.10,10.0,SE,11.5,19.6,N/A,,Overcast,140,2012-10-10 04:35:00
12:55 AM,50.0,44.6,82,30.10,10.0,SE,10.4,-,N/A,,Overcast,140,2012-10-10 04:55:00
1:15 AM,50.0,44.6,82,30.10,10.0,SE,13.8,-,N/A,,Overcast,130,2012-10-10 05:15:00
1:35 AM,48.2,44.6,87,30.09,10.0,SE,15.0,-,N/A,,Overcast,130,2012-10-10 05:35:00
1:55 AM,48.2,44.6,87,30.08,10.0,SE,16.1,21.9,N/A,,Overcast,130,2012-10-10 05:55:00
2:35 AM,48.2,42.8,82,30.05,10.0,SE,16.1,24.2,N/A,,Overcast,130,2012-10-10 06:35:00
2:55 AM,48.2,42.8,82,30.06,10.0,SE,18.4,21.9,N/A,,Overcast,130,2012-10-10 06:55:00
3:15 AM,48.2,42.8,82,30.06,10.0,ESE,15.0,-,N/A,,Overcast,120,2012-10-10 07:15:00
3:35 AM,48.2,42.8,82,30.05,10.0,SE,16.1,21.9,N/A,,Overcast,130,2012-10-10 07:35:00
3:55 AM,48.2,42.8,82,30.04,10.0,ESE,17.3,24.2,N/A,,Mostly Cloudy,120,2012-10-10 07:55:00
4:15 AM,48.2,42.8,82,30.04,10.0,SE,13.8,19.6,N/A,,Overcast,130,2012-10-10 08:15:00
4:35 AM,48.2,42.8,82,30.03,10.0,SE,15.0,20.7,N/A,,Overcast,130,2012-10-10 08:35:00
4:55 AM,48.2,42.8,82,30.03,10.0,SSE,11.5,18.4,N/A,,Overcast,150,2012-10-10 08:55:00
5:15 AM,48.2,42.8,82,30.03,10.0,SSE,10.4,-,N/A,,Overcast,160,2012-10-10 09:15:00
5:35 AM,48.2,42.8,82,30.02,10.0,SE,13.8,21.9,N/A,,Overcast,140,2012-10-10 09:35:00
5:55 AM,48.2,42.8,82,30.01,10.0,SE,16.1,27.6,N/A,,Overcast,130,2012-10-10 09:55:00
6:15 AM,48.2,42.8,82,30.00,10.0,ESE,20.7,27.6,N/A,,Overcast,120,2012-10-10 10:15:00
6:35 AM,48.2,42.8,82,30.01,10.0,SE,16.1,20.7,N/A,,Overcast,140,2012-10-10 10:35:00
6:55 AM,48.2,42.8,82,30.01,10.0,South,9.2,20.7,N/A,,Overcast,190,2012-10-10 10:55:00
7:15 AM,48.2,42.8,82,30.01,10.0,SSE,15.0,-,N/A,,Overcast,160,2012-10-10 11:15:00
7:35 AM,48.2,44.6,87,30.01,10.0,SSE,8.1,-,N/A,,Overcast,160,2012-10-10 11:35:00
7:55 AM,48.2,44.6,87,30.00,10.0,South,10.4,-,N/A,,Mostly Cloudy,170,2012-10-10 11:55:00
8:15 AM,48.2,44.6,87,30.00,10.0,South,11.5,-,N/A,,Overcast,180,2012-10-10 12:15:00
8:35 AM,48.2,44.6,87,29.98,10.0,South,11.5,16.1,N/A,,Overcast,170,2012-10-10 12:35:00
8:55 AM,48.2,44.6,87,29.98,10.0,SSE,6.9,16.1,N/A,,Overcast,160,2012-10-10 12:55:00
9:35 AM,51.8,44.6,76,29.95,10.0,South,5.8,-,N/A,,Mostly Cloudy,170,2012-10-10 13:35:00
9:55 AM,51.8,44.6,76,29.94,10.0,SSE,5.8,-,N/A,,Overcast,160,2012-10-10 13:55:00
10:15 AM,53.6,46.4,77,29.93,10.0,SSE,10.4,16.1,N/A,,Overcast,160,2012-10-10 14:15:00
10:35 AM,53.6,46.4,77,29.91,10.0,SE,11.5,21.9,N/A,,Overcast,140,2012-10-10 14:35:00
10:55 AM,53.6,46.4,77,29.91,10.0,SSE,13.8,-,N/A,,Overcast,150,2012-10-10 14:55:00
11:15 AM,53.6,46.4,77,29.89,10.0,SSE,16.1,23.0,N/A,,Overcast,150,2012-10-10 15:15:00
11:35 AM,53.6,46.4,77,29.88,10.0,SSE,9.2,19.6,N/A,,Overcast,150,2012-10-10 15:35:00
12:15 PM,53.6,48.2,82,29.86,10.0,SSE,13.8,20.7,N/A,,Mostly Cloudy,150,2012-10-10 16:15:00
12:55 PM,53.6,48.2,82,29.84,10.0,SE,13.8,20.7,N/A,,Overcast,140,2012-10-10 16:55:00
1:15 PM,53.6,48.2,82,29.82,10.0,SE,13.8,-,N/A,,Overcast,130,2012-10-10 17:15:00
1:55 PM,51.8,50.0,94,29.80,9.0,South,5.8,-,0.08,,Overcast,190,2012-10-10 17:55:00
2:15 PM,51.8,50.0,94,29.79,5.0,SE,4.6,-,0.11,,Overcast,140,2012-10-10 18:15:00
2:35 PM,51.8,50.0,94,29.78,4.0,SE,3.5,-,0.15,,Overcast,130,2012-10-10 18:35:00
3:35 PM,53.6,51.8,94,29.76,10.0,SSE,4.6,-,N/A,,Overcast,150,2012-10-10 19:35:00
4:15 PM,53.6,51.8,94,29.74,6.0,West,3.5,-,N/A,,Overcast,260,2012-10-10 20:15:00
4:55 PM,53.6,51.8,94,29.74,2.0,Calm,Calm,-,N/A,,Overcast,0,2012-10-10 20:55:00
5:15 PM,53.6,51.8,94,29.74,1.8,NW,3.5,-,N/A,,Overcast,320,2012-10-10 21:15:00
5:55 PM,53.6,51.8,94,29.74,4.0,SSW,5.8,-,0.05,,Mostly Cloudy,210,2012-10-10 21:55:00
6:15 PM,53.6,51.8,94,29.74,10.0,SW,3.5,-,N/A,,Mostly Cloudy,230,2012-10-10 22:15:00
6:35 PM,53.6,50.0,88,29.74,10.0,SW,3.5,-,N/A,,Overcast,220,2012-10-10 22:35:00
6:55 PM,53.6,48.2,82,29.75,10.0,Calm,Calm,-,N/A,,Overcast,0,2012-10-10 22:55:00
7:15 PM,53.6,48.2,82,29.76,10.0,WSW,3.5,-,N/A,,Mostly Cloudy,250,2012-10-10 23:15:00
7:55 PM,53.6,48.2,82,29.76,10.0,WSW,6.9,-,N/A,,Overcast,250,2012-10-10 23:55:00
8:15 PM,53.6,48.2,82,29.76,10.0,West,4.6,-,N/A,,Overcast,260,2012-10-11 00:15:00
8:35 PM,53.6,46.4,77,29.77,10.0,WNW,12.7,23.0,0.05,,Mostly Cloudy,300,2012-10-11 00:35:00
8:55 PM,50.0,42.8,76,29.79,10.0,WNW,10.4,16.1,0.05,,Overcast,300,2012-10-11 00:55:00
9:15 PM,48.2,41.0,76,29.80,10.0,NW,10.4,16.1,N/A,,Overcast,310,2012-10-11 01:15:00
9:35 PM,48.2,41.0,76,29.81,10.0,NW,3.5,-,0.01,,Overcast,320,2012-10-11 01:35:00
9:55 PM,48.2,39.2,71,29.82,10.0,NW,4.6,-,0.01,,Overcast,310,2012-10-11 01:55:00
10:15 PM,48.2,39.2,71,29.82,10.0,NW,4.6,-,N/A,,Overcast,310,2012-10-11 02:15:00
10:55 PM,46.4,37.4,71,29.83,10.0,NW,4.6,-,N/A,,Overcast,310,2012-10-11 02:55:00
11:15 PM,48.2,37.4,66,29.83,10.0,WNW,5.8,-,N/A,,Overcast,290,2012-10-11 03:15:00
11:35 PM,48.2,37.4,66,29.83,10.0,NW,9.2,-,N/A,,Overcast,310,2012-10-11 03:35:00
11:55 PM,46.4,39.2,76,29.83,9.0,West,5.8,19.6,N/A,,Overcast,280,2012-10-11 03:55:00